Time,TemperatureF,DewpointF,PressureIn,WindDirection,WindDirectionDegrees,WindSpeedMPH,WindSpeedGustMPH,Humidity,HourlyPrecipIn,Conditions,Clouds,dailyrainin,SoftwareType,DateUTC
2013-01-17 00:02:00,18.0,15.0,30.22,SW,217,2.0,-999.0,89,-99.99,,,-99.99,,2013-01-17 06:02:00,
2013-01-17 00:12:00,18.0,15.0,30.22,SW,219,1.0,-999.0,89,-99.99,,,-99.99,,2013-01-17 06:12:00,
2013-01-17 00:22:00,18.0,15.0,30.22,SW,219,1.0,-999.0,89,-99.99,,,-99.99,,2013-01-17 06:22:00,
2013-01-17 00:32:00,19.0,16.0,30.22,SW,235,3.0,-999.0,89,-99.99,,,-99.99,,2013-01-17 06:32:00,
2013-01-17 00:42:00,19.0,16.0,30.22,SW,235,3.0,-999.0,89,-99.99,,,-99.99,,2013-01-17 06:42:00,
2013-01-17 00:52:00,19.0,16.0,30.23,SW,236,2.0,-999.0,89,-99.99,,,-99.99,,2013-01-17 06:52:00,
2013-01-17 01:02:00,20.0,17.0,30.24,West,259,5.0,-999.0,89,-99.99,,,-99.99,,2013-01-17 07:02:00,
2013-01-17 01:12:00,20.0,17.0,30.24,West,259,5.0,-999.0,89,-99.99,,,-99.99,,2013-01-17 07:12:00,
2013-01-17 01:22:00,20.0,17.0,30.24,West,264,7.0,-999.0,89,-99.99,,,-99.99,,2013-01-17 07:22:00,
2013-01-17 01:32:00,21.0,19.0,30.25,West,264,5.0,-999.0,90,-99.99,,,-99.99,,2013-01-17 07:32:00,
2013-01-17 01:42:00,21.0,19.0,30.25,West,264,5.0,-999.0,90,-99.99,,,-99.99,,2013-01-17 07:42:00,
2013-01-17 01:52:00,21.0,19.0,30.26,West,279,5.0,-999.0,90,-99.99,,,-99.99,,2013-01-17 07:52:00,
2013-01-17 02:02:00,22.0,20.0,30.27,WNW,292,7.0,-999.0,90,-99.99,,,-99.99,,2013-01-17 08:02:00,
2013-01-17 02:12:00,22.0,20.0,30.27,WNW,292,7.0,-999.0,90,-99.99,,,-99.99,,2013-01-17 08:12:00,
2013-01-17 02:22:00,22.0,20.0,30.28,NW,319,7.0,-999.0,90,-99.99,,,-99.99,,2013-01-17 08:22:00,
2013-01-17 02:32:00,22.0,20.0,30.28,NNW,330,6.0,-999.0,90,-99.99,,,-99.99,,2013-01-17 08:32:00,
2013-01-17 02:43:00,22.0,20.0,30.28,NNW,330,6.0,-999.0,90,-99.99,,,-99.99,,2013-01-17 08:43:00,
2013-01-17 02:52:00,22.0,20.0,30.29,North,360,8.0,-999.0,90,-99.99,,,-99.99,,2013-01-17 08:52:00,
2013-01-17 03:02:00,21.0,19.0,30.30,North,355,8.0,-999.0,90,-99.99,,,-99.99,,2013-01-17 09:02:00,
2013-01-17 03:12:00,21.0,19.0,30.30,North,355,8.0,-999.0,90,-99.99,,,-99.99,,2013-01-17 09:12:00,
2013-01-17 03:22:00,20.0,17.0,30.32,North,5,10.0,-999.0,89,-99.99,,,-99.99,,2013-01-17 09:22:00,
2013-01-17 03:32:00,18.0,15.0,30.33,North,11,13.0,-999.0,87,-99.99,,,-99.99,,2013-01-17 09:32:00,
2013-01-17 03:42:00,18.0,15.0,30.33,North,11,13.0,-999.0,87,-99.99,,,-99.99,,2013-01-17 09:42:00,
2013-01-17 03:52:00,18.0,15.0,30.34,North,360,11.0,-999.0,87,-99.99,,,-99.99,,2013-01-17 09:52:00,
2013-01-17 04:02:00,17.0,14.0,30.34,North,351,11.0,-999.0,88,-99.99,,,-99.99,,2013-01-17 10:02:00,
2013-01-17 04:12:00,17.0,14.0,30.34,North,351,11.0,-999.0,88,-99.99,,,-99.99,,2013-01-17 10:12:00,
2013-01-17 04:22:00,17.0,14.0,30.34,North,351,11.0,-999.0,88,-99.99,,,-99.99,,2013-01-17 10:22:00,
2013-01-17 04:32:00,17.0,14.0,30.34,NNW,346,3.0,-999.0,88,-99.99,,,-99.99,,2013-01-17 10:32:00,
2013-01-17 04:43:00,17.0,14.0,30.34,NNW,346,3.0,-999.0,88,-99.99,,,-99.99,,2013-01-17 10:43:00,
2013-01-17 04:53:00,17.0,14.0,30.35,North,355,5.0,-999.0,88,-99.99,,,-99.99,,2013-01-17 10:53:00,
2013-01-17 05:02:00,16.0,13.0,30.36,North,355,5.0,-999.0,88,-99.99,,,-99.99,,2013-01-17 11:02:00,
2013-01-17 05:12:00,16.0,13.0,30.36,North,355,5.0,-999.0,88,-99.99,,,-99.99,,2013-01-17 11:12:00,
2013-01-17 05:22:00,16.0,13.0,30.37,North,355,4.0,-999.0,88,-99.99,,,-99.99,,2013-01-17 11:22:00,
2013-01-17 05:33:00,16.0,13.0,30.37,North,351,4.0,-999.0,88,-99.99,,,-99.99,,2013-01-17 11:33:00,
2013-01-17 05:42:00,16.0,13.0,30.37,North,351,4.0,-999.0,88,-99.99,,,-99.99,,2013-01-17 11:42:00,
2013-01-17 05:52:00,16.0,13.0,30.38,North,350,4.0,-999.0,88,-99.99,,,-99.99,,2013-01-17 11:52:00,
2013-01-17 06:02:00,16.0,13.0,30.37,NNW,346,5.0,-999.0,88,-99.99,,,-99.99,,2013-01-17 12:02:00,
2013-01-17 06:12:00,16.0,13.0,30.37,NNW,346,5.0,-999.0,88,-99.99,,,-99.99,,2013-01-17 12:12:00,
2013-01-17 06:22:00,14.0,11.0,30.37,NW,323,5.0,-999.0,87,-99.99,,,-99.99,,2013-01-17 12:22:00,
2013-01-17 06:33:00,13.0,10.0,30.38,NW,315,6.0,-999.0,86,-99.99,,,-99.99,,2013-01-17 12:33:00,
2013-01-17 06:43:00,13.0,10.0,30.38,NW,315,6.0,-999.0,86,-99.99,,,-99.99,,2013-01-17 12:43:00,
2013-01-17 06:52:00,12.0,9.0,30.38,NW,306,7.0,-999.0,86,-99.99,,,-99.99,,2013-01-17 12:52:00,
2013-01-17 07:03:00,10.0,6.0,30.39,NW,306,4.0,-999.0,85,-99.99,,,-99.99,,2013-01-17 13:03:00,
2013-01-17 07:12:00,10.0,6.0,30.39,NW,306,4.0,-999.0,85,-99.99,,,-99.99,,2013-01-17 13:12:00,
2013-01-17 07:22:00,8.0,5.0,30.40,NW,306,3.0,-999.0,86,-99.99,,,-99.99,,2013-01-17 13:22:00,
2013-01-17 07:33:00,7.0,4.0,30.41,NW,306,0.0,-999.0,86,-99.99,,,-99.99,,2013-01-17 13:33:00,
2013-01-17 07:43:00,7.0,4.0,30.41,NW,306,0.0,-999.0,86,-99.99,,,-99.99,,2013-01-17 13:43:00,
2013-01-17 07:52:00,7.0,4.0,30.41,NW,306,0.0,-999.0,86,-99.99,,,-99.99,,2013-01-17 13:52:00,
2013-01-17 08:03:00,6.0,3.0,30.41,NW,306,4.0,-999.0,87,-99.99,,,-99.99,,2013-01-17 14:03:00,
2013-01-17 08:12:00,6.0,3.0,30.41,NW,306,4.0,-999.0,87,-99.99,,,-99.99,,2013-01-17 14:12:00,
2013-01-17 08:23:00,8.0,5.0,30.41,WNW,302,6.0,-999.0,89,-99.99,,,-99.99,,2013-01-17 14:23:00,
2013-01-17 08:33:00,8.0,5.0,30.41,WNW,302,6.0,-999.0,89,-99.99,,,-99.99,,2013-01-17 14:33:00,
2013-01-17 08:43:00,8.0,5.0,30.41,WNW,302,6.0,-999.0,89,-99.99,,,-99.99,,2013-01-17 14:43:00,
2013-01-17 08:53:00,6.0,3.0,30.42,WNW,302,1.0,-999.0,88,-99.99,,,-99.99,,2013-01-17 14:53:00,
2013-01-17 09:03:00,7.0,4.0,30.43,North,350,5.0,-999.0,89,-99.99,,,-99.99,,2013-01-17 15:03:00,
2013-01-17 09:12:00,7.0,4.0,30.43,North,350,5.0,-999.0,89,-99.99,,,-99.99,,2013-01-17 15:12:00,
2013-01-17 09:22:00,7.0,4.0,30.43,North,350,5.0,-999.0,89,-99.99,,,-99.99,,2013-01-17 15:22:00,
2013-01-17 09:33:00,6.0,3.0,30.45,North,355,1.0,-999.0,88,-99.99,,,-99.99,,2013-01-17 15:33:00,
2013-01-17 09:43:00,6.0,3.0,30.45,North,355,1.0,-999.0,88,-99.99,,,-99.99,,2013-01-17 15:43:00,
2013-01-17 09:53:00,6.0,3.0,30.45,North,355,1.0,-999.0,88,-99.99,,,-99.99,,2013-01-17 15:53:00,
2013-01-17 10:02:00,6.0,3.0,30.46,North,355,0.0,-999.0,87,-99.99,,,-99.99,,2013-01-17 16:02:00,
2013-01-17 10:12:00,6.0,3.0,30.46,North,355,0.0,-999.0,87,-99.99,,,-99.99,,2013-01-17 16:12:00,
2013-01-17 10:23:00,6.0,2.0,30.47,NE,43,4.0,-999.0,85,-99.99,,,-99.99,,2013-01-17 16:23:00,
2013-01-17 10:33:00,6.0,2.0,30.47,NE,44,3.0,-999.0,84,-99.99,,,-99.99,,2013-01-17 16:33:00,
2013-01-17 10:43:00,6.0,2.0,30.47,NE,44,3.0,-999.0,84,-99.99,,,-99.99,,2013-01-17 16:43:00,
2013-01-17 10:52:00,6.0,2.0,30.47,NE,43,3.0,-999.0,83,-99.99,,,-99.99,,2013-01-17 16:52:00,
2013-01-17 11:03:00,6.0,2.0,30.47,NE,44,4.0,-999.0,82,-99.99,,,-99.99,,2013-01-17 17:03:00,
2013-01-17 11:13:00,6.0,2.0,30.47,NE,44,4.0,-999.0,82,-99.99,,,-99.99,,2013-01-17 17:13:00,
2013-01-17 11:22:00,6.0,2.0,30.47,NE,44,4.0,-999.0,82,-99.99,,,-99.99,,2013-01-17 17:22:00,
2013-01-17 11:33:00,6.0,1.0,30.45,NE,47,2.0,-999.0,81,-99.99,,,-99.99,,2013-01-17 17:33:00,
2013-01-17 11:43:00,6.0,1.0,30.45,NE,47,2.0,-999.0,81,-99.99,,,-99.99,,2013-01-17 17:43:00,
2013-01-17 11:53:00,6.0,1.0,30.46,NE,48,2.0,-999.0,80,-99.99,,,-99.99,,2013-01-17 17:53:00,
2013-01-17 12:03:00,7.0,2.0,30.45,NE,48,2.0,-999.0,80,-99.99,,,-99.99,,2013-01-17 18:03:00,
2013-01-17 12:12:00,7.0,2.0,30.45,NE,48,2.0,-999.0,80,-99.99,,,-99.99,,2013-01-17 18:12:00,
2013-01-17 12:22:00,7.0,2.0,30.45,NE,48,2.0,-999.0,80,-99.99,,,-99.99,,2013-01-17 18:22:00,
2013-01-17 12:33:00,7.0,2.0,30.45,NE,52,3.0,-999.0,80,-99.99,,,-99.99,,2013-01-17 18:33:00,
2013-01-17 12:43:00,7.0,2.0,30.45,NE,52,3.0,-999.0,80,-99.99,,,-99.99,,2013-01-17 18:43:00,
2013-01-17 12:53:00,7.0,2.0,30.44,NE,53,2.0,-999.0,80,-99.99,,,-99.99,,2013-01-17 18:53:00,
2013-01-17 13:03:00,7.0,2.0,30.43,ENE,73,4.0,-999.0,80,-99.99,,,-99.99,,2013-01-17 19:03:00,
2013-01-17 13:12:00,7.0,2.0,30.43,ENE,73,4.0,-999.0,80,-99.99,,,-99.99,,2013-01-17 19:12:00,
2013-01-17 13:22:00,7.0,2.0,30.44,East,84,3.0,-999.0,80,-99.99,,,-99.99,,2013-01-17 19:22:00,
2013-01-17 13:33:00,7.0,2.0,30.43,East,86,3.0,-999.0,80,-99.99,,,-99.99,,2013-01-17 19:33:00,
2013-01-17 13:43:00,7.0,2.0,30.43,East,86,3.0,-999.0,80,-99.99,,,-99.99,,2013-01-17 19:43:00,
2013-01-17 13:53:00,7.0,2.0,30.42,East,88,3.0,-999.0,80,-99.99,,,-99.99,,2013-01-17 19:53:00,
2013-01-17 14:03:00,7.0,2.0,30.43,East,94,3.0,-999.0,81,-99.99,,,-99.99,,2013-01-17 20:03:00,
2013-01-17 14:12:00,7.0,2.0,30.43,East,94,3.0,-999.0,81,-99.99,,,-99.99,,2013-01-17 20:12:00,
2013-01-17 14:23:00,7.0,2.0,30.43,East,94,3.0,-999.0,81,-99.99,,,-99.99,,2013-01-17 20:23:00,
2013-01-17 14:33:00,7.0,3.0,30.39,SE,125,7.0,-999.0,82,-99.99,,,-99.99,,2013-01-17 20:33:00,
2013-01-17 14:43:00,7.0,3.0,30.39,SE,125,7.0,-999.0,82,-99.99,,,-99.99,,2013-01-17 20:43:00,
2013-01-17 14:54:00,7.0,3.0,30.39,SE,125,7.0,-999.0,82,-99.99,,,-99.99,,2013-01-17 20:54:00,
2013-01-17 15:03:00,7.0,3.0,30.37,SE,124,7.0,-999.0,83,-99.99,,,-99.99,,2013-01-17 21:03:00,
2013-01-17 15:13:00,7.0,3.0,30.37,SE,124,7.0,-999.0,83,-99.99,,,-99.99,,2013-01-17 21:13:00,
2013-01-17 15:23:00,7.0,3.0,30.37,ESE,117,7.0,-999.0,84,-99.99,,,-99.99,,2013-01-17 21:23:00,
2013-01-17 15:33:00,7.0,3.0,30.35,ESE,115,9.0,-999.0,84,-99.99,,,-99.99,,2013-01-17 21:33:00,
2013-01-17 15:43:00,7.0,3.0,30.35,ESE,115,9.0,-999.0,84,-99.99,,,-99.99,,2013-01-17 21:43:00,
2013-01-17 15:52:00,7.0,3.0,30.34,ESE,111,9.0,-999.0,84,-99.99,,,-99.99,,2013-01-17 21:52:00,
2013-01-17 16:03:00,8.0,4.0,30.34,ESE,121,9.0,-999.0,85,-99.99,,,-99.99,,2013-01-17 22:03:00,
2013-01-17 16:12:00,8.0,4.0,30.34,ESE,121,9.0,-999.0,85,-99.99,,,-99.99,,2013-01-17 22:12:00,
2013-01-17 16:23:00,8.0,4.0,30.33,ESE,122,11.0,-999.0,85,-99.99,,,-99.99,,2013-01-17 22:23:00,
2013-01-17 16:33:00,8.0,4.0,30.32,ESE,115,11.0,-999.0,85,-99.99,,,-99.99,,2013-01-17 22:33:00,
2013-01-17 16:43:00,8.0,4.0,30.32,ESE,115,11.0,-999.0,85,-99.99,,,-99.99,,2013-01-17 22:43:00,
2013-01-17 16:52:00,8.0,4.0,30.33,ESE,115,9.0,-999.0,85,-99.99,,,-99.99,,2013-01-17 22:52:00,
2013-01-17 17:03:00,8.0,4.0,30.31,ESE,122,11.0,-999.0,85,-99.99,,,-99.99,,2013-01-17 23:03:00,
2013-01-17 17:12:00,8.0,4.0,30.31,ESE,122,11.0,-999.0,85,-99.99,,,-99.99,,2013-01-17 23:12:00,
2013-01-17 17:22:00,8.0,4.0,30.30,ESE,112,11.0,-999.0,85,-99.99,,,-99.99,,2013-01-17 23:22:00,
2013-01-17 17:33:00,8.0,4.0,30.30,ESE,119,11.0,-999.0,85,-99.99,,,-99.99,,2013-01-17 23:33:00,
2013-01-17 17:43:00,8.0,4.0,30.30,ESE,119,11.0,-999.0,85,-99.99,,,-99.99,,2013-01-17 23:43:00,
2013-01-17 17:52:00,9.0,5.0,30.30,SE,133,11.0,-999.0,85,-99.99,,,-99.99,,2013-01-17 23:52:00,
2013-01-17 18:02:00,9.0,6.0,30.29,SE,134,10.0,-999.0,86,-99.99,,,-99.99,,2013-01-18 00:02:00,
2013-01-17 18:12:00,9.0,6.0,30.29,SE,134,10.0,-999.0,86,-99.99,,,-99.99,,2013-01-18 00:12:00,
2013-01-17 18:23:00,10.0,7.0,30.28,SE,132,9.0,-999.0,86,-99.99,,,-99.99,,2013-01-18 00:23:00,
2013-01-17 18:32:00,10.0,7.0,30.28,SE,132,9.0,-999.0,86,-99.99,,,-99.99,,2013-01-18 00:32:00,
2013-01-17 18:42:00,10.0,7.0,30.28,SE,133,9.0,-999.0,86,-99.99,,,-99.99,,2013-01-18 00:42:00,
2013-01-17 18:52:00,10.0,7.0,30.26,SE,130,11.0,-999.0,87,-99.99,,,-99.99,,2013-01-18 00:52:00,
2013-01-17 19:03:00,10.0,7.0,30.24,SE,125,11.0,-999.0,88,-99.99,,,-99.99,,2013-01-18 01:03:00,
2013-01-17 19:12:00,10.0,7.0,30.24,SE,125,11.0,-999.0,88,-99.99,,,-99.99,,2013-01-18 01:12:00,
2013-01-17 19:22:00,11.0,8.0,30.23,ESE,117,11.0,-999.0,89,-99.99,,,-99.99,,2013-01-18 01:22:00,
2013-01-17 19:33:00,11.0,8.0,30.22,ESE,122,11.0,-999.0,89,-99.99,,,-99.99,,2013-01-18 01:33:00,
2013-01-17 19:43:00,11.0,8.0,30.22,ESE,122,11.0,-999.0,89,-99.99,,,-99.99,,2013-01-18 01:43:00,
2013-01-17 19:52:00,12.0,10.0,30.19,SE,138,12.0,-999.0,90,-99.99,,,-99.99,,2013-01-18 01:52:00,
2013-01-17 20:02:00,12.0,10.0,30.19,ESE,120,13.0,-999.0,90,-99.99,,,-99.99,,2013-01-18 02:02:00,
2013-01-17 20:12:00,12.0,10.0,30.19,ESE,120,13.0,-999.0,90,-99.99,,,-99.99,,2013-01-18 02:12:00,
2013-01-17 20:22:00,12.0,10.0,30.18,ESE,122,12.0,-999.0,90,-99.99,,,-99.99,,2013-01-18 02:22:00,
2013-01-17 20:32:00,13.0,11.0,30.16,ESE,118,12.0,-999.0,90,-99.99,,,-99.99,,2013-01-18 02:32:00,
2013-01-17 20:42:00,13.0,11.0,30.16,ESE,118,12.0,-999.0,90,-99.99,,,-99.99,,2013-01-18 02:42:00,
2013-01-17 20:52:00,13.0,11.0,30.15,ESE,118,12.0,-999.0,90,-99.99,,,-99.99,,2013-01-18 02:52:00,
2013-01-17 21:02:00,13.0,11.0,30.13,ESE,114,13.0,-999.0,91,-99.99,,,-99.99,,2013-01-18 03:02:00,
2013-01-17 21:12:00,13.0,11.0,30.13,ESE,114,13.0,-999.0,91,-99.99,,,-99.99,,2013-01-18 03:12:00,
2013-01-17 21:22:00,14.0,12.0,30.11,ESE,118,13.0,-999.0,91,-99.99,,,-99.99,,2013-01-18 03:22:00,
2013-01-17 21:33:00,14.0,12.0,30.10,ESE,119,12.0,-999.0,91,-99.99,,,-99.99,,2013-01-18 03:33:00,
2013-01-17 21:42:00,14.0,12.0,30.10,ESE,119,12.0,-999.0,91,-99.99,,,-99.99,,2013-01-18 03:42:00,
2013-01-17 21:52:00,14.0,12.0,30.07,SE,128,14.0,-999.0,91,-99.99,,,-99.99,,2013-01-18 03:52:00,
2013-01-17 22:02:00,14.0,12.0,30.06,SE,129,12.0,-999.0,91,-99.99,,,-99.99,,2013-01-18 04:02:00,
2013-01-17 22:12:00,14.0,12.0,30.06,SE,129,12.0,-999.0,91,-99.99,,,-99.99,,2013-01-18 04:12:00,
2013-01-17 22:22:00,15.0,13.0,30.04,ESE,121,13.0,-999.0,91,-99.99,,,-99.99,,2013-01-18 04:22:00,
2013-01-17 22:32:00,15.0,13.0,30.03,ESE,118,13.0,-999.0,91,-99.99,,,-99.99,,2013-01-18 04:32:00,
2013-01-17 22:42:00,15.0,13.0,30.03,ESE,118,13.0,-999.0,91,-99.99,,,-99.99,,2013-01-18 04:42:00,
2013-01-17 22:52:00,15.0,13.0,30.03,ESE,122,11.0,-999.0,91,-99.99,,,-99.99,,2013-01-18 04:52:00,
2013-01-17 23:03:00,15.0,13.0,30.03,ESE,119,10.0,-999.0,91,-99.99,,,-99.99,,2013-01-18 05:03:00,
2013-01-17 23:12:00,15.0,13.0,30.03,ESE,119,10.0,-999.0,91,-99.99,,,-99.99,,2013-01-18 05:12:00,
2013-01-17 23:22:00,15.0,13.0,30.02,ESE,108,8.0,-999.0,91,-99.99,,,-99.99,,2013-01-18 05:22:00,
2013-01-17 23:33:00,15.0,13.0,30.02,East,96,6.0,-999.0,91,-99.99,,,-99.99,,2013-01-18 05:33:00,
2013-01-17 23:42:00,15.0,13.0,30.02,East,96,6.0,-999.0,91,-99.99,,,-99.99,,2013-01-18 05:42:00,
2013-01-17 23:52:00,16.0,14.0,30.01,ESE,110,6.0,-999.0,91,-99.99,,,-99.99,,2013-01-18 05:52:00,